Regional Weather Roundup
Issued by NWS Sterling, VA

Home | Current Version | Previous Version | Text Only | Print | Product List | Glossary On
Versions: 1 2 3 4 5 6 7 8 9 10 11 12 13 14 15 16 17 18 19 20 21 22 23 24 25 26 27 28
000
ASUS41 KLWX 250110
RWRLWX

REGIONAL WEATHER ROUNDUP
NATIONAL WEATHER SERVICE BALTIMORE MD/WASHINGTON DC
900 PM EDT SAT SEP 24 2016

Note: "FAIR" indicates few or no clouds below 12,000 feet
with no significant weather and/or obstructions to visibility.
 TC=TEMPERATURE CELSIUS

 * =Non NWS site. Station does not report precipitation (e.g. rain,
    snow, etc.), thunder, or fog.

DCZ001-MDZ009-015-VAZ040>042-051-053>054-250200-
WASHINGTON METRO

CITY           SKY/WX    TMP DP  RH WIND       PRES   REMARKS
WASHINGTON NAT PTCLDY    68  62  81 E6        30.13R
DULLES         PTCLDY    64  59  83 E3        30.13R
ANDREWS AFB    CLEAR     63  60  88 E3        30.12R
FT BELVOIR     CLEAR     67  60  80 VRB3      30.13R
QUANTICO         N/A     71  63  75 E9        30.13R
COLLEGE PARK*  CLEAR     61  59  94 CALM      30.13R
LEESBURG*      MOCLDY    66  63  88 CALM      30.14R
MANASSAS*      MOCLDY    70  63  78 CALM      30.13R
GAITHERSBURG*  PTCLDY    61  55  82 CALM      30.17R

$$

MDZ006>007-011-014-250200-
BALTIMORE METRO

CITY           SKY/WX    TMP DP  RH WIND       PRES   REMARKS
BWI AIRPORT    PTCLDY    62  58  86 CALM      30.13R
MD SCIENCE CTR   N/A     69  57  65 MISG      30.13R
MARTIN STATE   CLEAR     63  63 100 CALM      30.14R
ANNAPOLIS      PTCLDY    68  62  81 E6        30.13R
FORT MEADE*    CLEAR     59  55  88 CALM      30.15R

$$

MDZ012-015-019>023-250200-
MARYLAND EASTERN SHORE

CITY           SKY/WX    TMP DP  RH WIND       PRES   REMARKS
OCEAN CITY     CLOUDY    66  61  84 NE10      30.12R
SALISBURY      CLOUDY    64  62  93 N6        30.13R FOG
BAY BRIDGE AP* CLEAR     64  59  82 MISG      30.13R
CAMBRIDGE*     PTCLDY    63  59  88 E3        30.13R
EASTON*        MOCLDY    63  57  82 CALM      30.17R

$$

MDZ017>025-250200-
SOUTHERN MARYLAND

CITY           SKY/WX    TMP DP  RH WIND       PRES   REMARKS
PATUXENT RIVER CLOUDY    67  60  78 NE9       30.12R
ST INIGOES     CLOUDY    67  63  87 NE7       30.11R
LEONARDTOWN*   MOCLDY    64  61  88 E5        30.14R

$$

MDZ003>005-250200-
NORTH CENTRAL MARYLAND

CITY           SKY/WX    TMP DP  RH WIND       PRES   REMARKS
FREDERICK*     NOT AVBL
HAGERSTOWN APT CLEAR     67  47  48 N7        30.14R

$$

MDZ501>502-250200-
WESTERN MARYLAND

CITY           SKY/WX    TMP DP  RH WIND       PRES   REMARKS
OAKLAND*       PTCLDY    54  54 100 N3        30.22R FOG
CUMBERLAND*    PTCLDY    68  55  64 NW5       30.19R

$$

VAZ025>031-250200-
SHENANDOAH VALLEY

CITY           SKY/WX    TMP DP  RH WIND       PRES   REMARKS
WINCHESTER*    CLOUDY    68  55  64 N3        30.14R
FRONT ROYAL*   FAIR      63  61  94 CALM      30.13R
LURAY*         CLOUDY    68  61  77 N6        30.13R
NEW MARKET*    MOCLDY   N/A N/A N/A N5        30.12R
STAUNTON*      CLOUDY    70  62  74 NE8       30.14R
WAYNESBORO*    CLOUDY    71  64  76 E5        30.13R

$$

WVZ021-048>050-054>055-250200-
EASTERN WEST VIRGINIA PANHANDLE

CITY           SKY/WX    TMP DP  RH WIND       PRES   REMARKS
MARTINSBURG    PTCLDY    68  51  54 N5        30.13R
PETERSBURG*    PTCLDY    73  61  67 NE3       30.14R

$$

VAZ036>039-050-250200-
CENTRAL FOOTHILLS

CITY           SKY/WX    TMP DP  RH WIND       PRES   REMARKS
CHARLOTTESVILL CLOUDY    75  65  70 NE5       30.11R
CULPEPER*      CLOUDY    71  64  80 CALM      30.13R
ORANGE*          N/A     72  68  88 NE3       30.14R
GORDONSVILLE*  NOT AVBL
WARRENTON*     CLOUDY    70  60  70 CALM      30.12R

$$

VAZ055>057-250200-
NORTH AND CENTRAL PIEDMONT

CITY           SKY/WX    TMP DP  RH WIND       PRES   REMARKS
FREDERICKSBRG* MOCLDY    70  65  84 E5        30.11R
STAFFORD*      CLOUDY    69  64  84 E5        30.16R

$$

NCZ024-NYZ072-PAZ021-071-VAZ022-071-250200-
OTHER REGIONAL OBSERVATIONS

CITY           SKY/WX    TMP DP  RH WIND       PRES   REMARKS
NEW YORK CITY  CLEAR     63  43  48 NE5       30.15R
PHILADELPHIA   PTCLDY    66  56  70 SW6       30.13R
PITTSBURGH     CLEAR     65  52  62 N7        30.16S
ROANOKE        PTCLDY    80  63  55 CALM      30.10R
RICHMOND       CLOUDY    70  64  81 NE7       30.10R
RALEIGH        PTCLDY    77  70  79 CALM      30.04R

$$

ANZ530>537-250200-
MARINE OBSERVATIONS

STATION/POSITION TIME  TEMP    WIND        PRES
                       AIR SEA DIR/SP/G
                 (UTC) (F)     (DEG/KT/KT) (MB)
THOMAS PT LIGHT  0100   67 76  120/  7/  9 1021.5R
BALT KEY BRIDGE  0042   69      80/  5/  6 1019.9R
COVE POINT       0042   66      80/ 11/ 15 1020.6R
LEWISETTA        0042   70 77   70/  9/ 13 1019.0R
SOLOMONS ISLAND  0042   68 77   60/  9/ 10   N/A
PINEY POINT      0036           70/  6/  9   N/A

$$





USA.gov is the U.S. government's official web portal to all federal, state and local government web resources and services.